Location: Unspecified
(41.9031°N, 12.4386°E)
Time: 17:16:09
(UTC+02:00)

ISS - Pass Details

Date: 28 May 2020
Orbit: 417 x 420 km, 51.6° (Epoch: 26 May)

Event Time Altitude Azimuth Distance (km) Brightness Sun altitude
Rises 23:10:30 0° 305° (NW) 2,366 1.2 -20.9°
Reaches altitude 10° 23:12:36 10° 306° (NW) 1,500 0.0 -21.1°
Enters shadow 23:15:35 67° 317° (NW) 456 -3.5 -21.4°
